Simultaneous Nadir Overpasses (SNOs) Predictions

Prediction of SNOs between METOP-A and TERRA Satellite Orbit:

Table of predicted SNOs for the next 14.0 days since TLE Epoch: 2/8/2020
Index Date (METOP-A) Time (METOP-A) Lat,Lon (METOP-A) SZA (METOP-A ) Date (TERRA) Time (TERRA) Lat,Lon (TERRA) SZA (TERRA ) Distance(km) Time Diff (sec)
1 02/09/2020 22:44:35 -81.43, 68.57 81.44 02/09/2020 22:45:06 -81.44, 68.53 81.43 0.90 31
2 02/09/2020 23:35:16 81.44,-124.15 98.55 02/09/2020 23:34:33 81.43,-124.06 98.54 1.69 43
3 02/12/2020 18:18:58 -81.44, 134.73 82.38 02/12/2020 18:19:25 -81.44, 134.90 82.35 2.76 27
4 02/12/2020 19:09:38 81.43, -57.60 97.65 02/12/2020 19:08:52 81.42, -57.72 97.61 2.16 46
5 02/15/2020 13:53:19 -81.44,-158.73 83.31 02/15/2020 13:53:43 -81.43,-158.77 83.31 0.76 24
6 02/15/2020 14:43:59 81.43, 8.92 96.71 02/15/2020 14:43:09 81.44, 8.96 96.70 1.05 50
7 02/18/2020 09:27:41 -81.43, -92.21 84.27 02/18/2020 09:28:01 -81.44, -92.10 84.24 2.33 20
8 02/18/2020 10:18:22 81.43, 75.03 95.72 02/18/2020 10:17:28 81.43, 75.21 95.71 2.92 54
9 02/21/2020 05:02:03 -81.43, -25.71 85.25 02/21/2020 05:02:20 -81.44, -25.85 85.25 2.53 17




NCC Satellite Simultaneous Nadir Overpasses (SNOs) Prediction Service
